Showing default

QIANFAN-52, 62253

Orbit data source: Space-Track

QIANFAN-52, 62253 is a Chinese payload satellite in LEO that was launched on Thu, 05 Dec 2024 UTC via a CHANG ZHENG 6A launch vehicle from the Taiyaun Space Center, China (TSC). Payload-class satellites include a variety of spacecraft equipped with specific instruments for various scientific and technological missions. These include communications satellites like Starlink; space stations such as the ISS; scientific satellites like the Hubble; Earth observation satellites from companies like Planet Labs, Umbra, and HawkEye 360; GPS; miniature CubeSats for education and research; and military/defense satellites.

Loading next visibility...
Identifier
62253, 2024-232S
Orbit
LEO
Country
Flag of CNCN / PRC
Related business
Manufacturer
SECM
Mission
Operational Commercial Communications
Bus & Motor
QIANFAN, Unknown motor
Mass
267 kg wet, ~267 kg dry
Launch date (UTC)
2024-12-05 (2 years ago)
Launch vehicle
CHANG ZHENG 6A
Launch site
Taiyaun Space Center, China (TSC)
Object type
Payload
Rocket body
Debris
Shape & HBR
Box + 1 Pan, 5.0 m
Radar Cross Section
13.200 m², Large (>1 m²)

Expand to show TLE details & history
Last TLE update: 8 hours ago

TLE from 8 hours ago
0 QIANFAN-52
1 62253U 24232S   26246.87475473  .00000090  00000-0  11983-3 0  9990
2 62253  89.0138  14.4814 0016759 141.8563 218.3778 13.51028537103743
Epoch: 2026-09-03T20:59Z
TLE epoch observation values (Epoch: 2026-09-03T20:59:38.808Z)
Latitude
-0.00001°
Longitude
76.56304°
Altitude
1,081.223 km
Speed
7.307 km/s
True Right ascension
00h 57m 55s
True Declination
0° 00' 00"
Sunlit
Object was in full shadow at epoch
Visualization orbit readout
Latitude
Unknown
Longitude
Unknown
Altitude
Unknown
Speed
Unknown
Apparent Right ascension
Unknown
Apparent Declination
Unknown
Sunlit
N/A
Visualization observer readout
Local Sidereal Time
20:52:51
Azimuth
Unknown
Elevation
Unknown
Doppler factor
Unknown
Orbital elements
Apogee altitude
1,078.002 km
Perigee altitude
1,053.053 km
Semi-major axis
7,443.665 km
Eccentricity
0.00168
Inclination
89.0138°
RAAN
14.4814°
Arg. of periapsis
141.8563°
True anomaly
218.25877°
Mean anomaly
218.3778°
Eccentric anomaly
218.31826°
Mean motion
3.37958 °/min
Orbital period
106.52 mins
BSTAR
0.00011983
Loading maneuver chart data...
Computing Atmospheric mass density...
Loading historical data...
Loading historical data...
Loading historical data...
Loading historical data...
Loading historical data...
Loading historical data...
Loading historical data...

Documentation

Showing up to 5 results
|